[[{"header":{"parameterUnit":"m.s-1","parameterCategory":1,"la1":30.2991,"la2":30.254,"lo1":-89.0895,"lo2":-89.0444,"dy":0.0017,"dx":0.0017,"nx":28,"ny":28,"refTime":"2024-06-24T09:00:00:Z","depth":0,"parameterNumber":2,"parameterNumberName":"U-component_of_WINDS"},"data":[0,0,0,0,0,0,0,0,0,0,0,0,0,0,0,0,0,0,0,0,0,0,0,0,0,0,0,0,0,0,0,0,0,0,0,0,0,0,0,0,0,0,0,0,0,0,0,0,0,0,0,0,0,0,0,0,0,0,2.7403,2.7402,0,2.733,2.7329,2.7328,2.7191,2.7189,2.7186,2.7183,2.7111,2.7112,2.7112,0,0,0,0,0,0,0,0,0,0,0,0,0,2.7428,2.7428,2.7403,2.7402,2.7401,2.733,2.7329,2.7328,2.7192,2.7189,2.7185,2.7182,2.7111,2.7112,2.7112,0,0,0,0,0,0,0,0,0,0,0,0,0,2.7393,2.7428,2.7403,2.7325,2.7317,2.733,2.7329,2.7328,2.7192,2.7188,2.7184,2.7181,2.7111,2.7111,2.7112,2.7198,0,0,2.7115,2.7115,0,0,0,0,0,0,0,0,2.7395,2.7392,2.7337,2.733,2.7321,2.7266,2.7311,2.7284,2.7193,2.724,2.7183,2.7179,2.7166,2.7162,2.7157,2.7194,2.7191,2.7115,2.7115,2.7116,2.7116,0,0,0,0,0,0,0,2.7397,2.7394,2.7374,2.7336,2.7327,2.7294,2.7285,2.7306,2.7226,2.7235,2.7225,2.7218,2.7161,2.7157,2.7154,2.719,2.7115,2.7116,2.7116,2.7116,2.7296,2.73,0,0,0,0,0,0,2.7411,2.7397,2.7376,2.7372,2.7349,2.7297,2.7286,2.7288,2.7226,2.7212,2.7222,2.7212,2.7157,2.7154,2.7151,2.7248,2.7116,2.7117,2.7117,2.7292,2.7297,2.7302,0,0,0,0,0,0,2.7412,2.741,2.7379,2.7382,2.7375,2.7301,2.7303,2.7288,2.7284,2.7215,2.7201,2.7232,2.7154,2.715,2.7188,2.7244,2.7117,2.7118,2.7287,2.7294,2.73,2.7443,0,0,0,0,0,0,2.7413,2.7411,2.7442,2.7383,2.7376,2.7416,2.7307,2.729,2.7285,2.7272,2.7221,2.7209,2.715,2.7187,2.7188,2.7243,2.7118,2.7282,2.729,2.7298,2.7433,2.7453,2.7471,0,0,0,0,0,2.7415,2.7485,2.7444,2.7442,2.7412,2.7419,2.7415,2.7346,2.729,2.7321,2.7278,2.721,2.7238,2.7192,2.7192,2.7248,2.7278,2.7288,2.7297,2.7424,2.7449,2.7471,0,0,0,0,0,0,2.7552,2.7476,2.743,2.7483,2.7459,2.7396,2.7433,2.7375,2.7366,2.7354,2.727,2.7259,2.7309,2.7282,2.7232,2.7329,2.7247,2.7258,2.7344,2.7367,2.7386,2.7392,2.7119,0,0,0,0,0,2.7589,2.76,2.7533,2.7587,2.7577,2.7508,2.7508,2.7458,2.7429,2.7418,2.7377,2.7353,2.7357,2.736,2.736,2.7429,2.7417,2.7467,2.7487,2.7503,2.7512,2.7549,2.7572,2.7333,2.7333,2.7333,0,0,2.7664,2.7624,2.7636,2.7614,2.7589,2.7604,2.75,2.7519,2.753,2.7421,2.7454,2.7424,2.7392,2.7446,2.7468,2.7426,2.7576,2.7515,2.7528,2.7529,2.7562,2.7584,2.7604,2.734,2.7339,2.7338,0,0,2.7809,2.7779,2.7822,2.78,2.7764,2.7717,2.7728,2.7675,2.7651,2.7683,2.7602,2.7615,2.7621,2.7603,2.7594,2.7736,2.7675,2.7739,2.7838,2.7876,2.7894,2.7911,2.7963,2.7982,2.7749,2.7749,2.7749,0,2.7907,2.7926,2.7851,2.7877,2.787,2.7773,2.7816,2.7799,2.7765,2.7764,2.7716,2.7725,2.7696,2.7746,2.7781,2.7777,2.7788,2.7743,2.7897,2.7913,2.7927,2.7976,2.7996,2.7757,2.7756,2.7755,2.7755,0,2.8049,2.8064,2.8103,2.8073,2.8071,2.8105,2.8038,2.8045,2.7996,2.7955,2.7991,2.7953,2.7944,2.7952,2.7904,2.7996,2.7971,2.7913,2.7829,2.7959,2.8004,2.8022,2.7769,2.7766,2.7763,2.7761,0,0,2.8276,2.8207,2.8223,2.8209,2.8164,2.8174,2.8206,2.8197,2.8206,2.8187,2.8212,2.8222,2.8168,2.8159,2.8108,2.814,2.8258,2.8077,2.8075,2.8113,2.8359,2.8404,2.8427,2.8217,2.822,2.8223,2.8362,0,2.8412,2.846,2.8396,2.846,2.8473,2.8383,2.8411,2.8387,2.8352,2.8359,2.832,2.8328,2.8256,2.825,2.8278,2.8238,2.8306,2.8226,2.8241,2.8243,2.8252,2.845,2.8496,2.863,2.8379,2.8382,2.8384,0,2.8576,2.8565,2.8631,2.8584,2.8587,2.8613,2.8601,2.8609,2.8582,2.8554,2.8546,2.8485,2.8515,2.8435,2.8476,2.8423,2.8426,2.8407,2.8411,2.8409,2.8321,2.8454,2.867,2.8691,2.841,2.8408,2.8406,0,2.8736,2.8739,2.8778,2.8769,2.8716,2.8737,2.8716,2.8684,2.8684,2.8674,2.8674,2.8668,2.8665,2.8663,2.8604,2.8551,2.8654,2.8568,2.8632,2.8634,2.8657,2.8656,2.8877,2.8659,2.8659,2.8658,2.8658,0,2.8894,2.8938,2.885,2.8875,2.8922,2.8849,2.8898,2.8868,2.8841,2.886,2.8782,2.8801,2.8722,2.8733,2.8688,2.873,2.8729,2.8708,2.8695,2.8715,2.8718,2.8715,2.8704,2.8664,2.8662,2.8661,2.866,0,2.9081,2.9023,2.9061,2.9008,2.8996,2.9034,2.8989,2.901,2.8971,2.8995,2.8997,2.8935,2.8945,2.8886,2.8885,2.8854,2.8919,2.889,2.8928,2.8919,2.8987,2.8982,2.9214,2.9242,2.9006,2.9009,2.9011,0,2.9185,2.9217,2.9168,2.9175,2.9158,2.9169,2.9169,2.9099,2.9103,2.9076,2.9102,2.9105,2.9104,2.9125,2.908,2.908,2.9051,2.9132,2.905,2.907,2.9053,2.9052,2.9056,2.915,2.9152,2.9155,2.9157,0,2.9377,2.9348,2.935,2.9344,2.9346,2.9338,2.9324,2.9335,2.926,2.9268,2.9277,2.9276,2.9276,2.9282,2.9273,2.9252,2.9194,2.9183,2.9198,2.9219,2.924,2.923,2.8975,2.9178,2.9176,2.9174,2.9173,2.9172,2.9526,2.9551,2.9521,2.9527,2.951,2.95,2.9518,2.9482,2.9488,2.9482,2.9441,2.9459,2.9434,2.9416,2.9402,2.9416,2.9377,2.9398,2.9404,2.941,2.9423,2.9238,2.9414,2.9413,2.9413,2.9412,2.9412,0,2.9714,2.9691,2.9698,2.9682,2.9688,2.9632,2.9615,2.9624,2.964,2.9621,2.9623,2.9635,2.964,2.9598,2.9598,2.9618,2.9591,2.962,2.9618,2.9615,2.9457,2.9444,2.9642,2.9642,2.9642,2.9642,2.9642,2.9642,2.9813,2.9853,2.9821,2.9853,2.9829,2.9846,2.9841,2.9833,2.9818,2.9835,2.9839,2.9811,2.9784,2.9782,2.9786,2.9773,2.9777,2.9816,2.9795,2.9648,2.9626,2.9604,2.9592,2.9818,2.9818,2.9951,2.9953,2.9954]},{"header":{"parameterUnit":"m.s-1","parameterCategory":1,"la1":30.2991,"la2":30.254,"lo1":-89.0895,"lo2":-89.0444,"dy":0.0017,"dx":0.0017,"nx":28,"ny":28,"refTime":"2024-06-24T09:00:00:Z","depth":0,"parameterNumber":3,"parameterNumberName":"V-component_of_WINDS"},"data":[0,0,0,0,0,0,0,0,0,0,0,0,0,0,0,0,0,0,0,0,0,0,0,0,0,0,0,0,0,0,0,0,0,0,0,0,0,0,0,0,0,0,0,0,0,0,0,0,0,0,0,0,0,0,0,0,0,0,-0.0799,-0.0799,0,-0.0817,-0.0817,-0.0817,-0.0838,-0.0839,-0.0839,-0.0839,-0.0856,-0.0856,-0.0856,0,0,0,0,0,0,0,0,0,0,0,0,0,-0.0784,-0.0784,-0.0799,-0.0799,-0.08,-0.0817,-0.0817,-0.0817,-0.0838,-0.0839,-0.0839,-0.084,-0.0856,-0.0856,-0.0856,0,0,0,0,0,0,0,0,0,0,0,0,0,-0.0795,-0.0784,-0.0799,-0.0812,-0.0814,-0.0817,-0.0817,-0.0817,-0.0838,-0.0839,-0.0839,-0.084,-0.0856,-0.0856,-0.0856,-0.0847,0,0,-0.0857,-0.0857,0,0,0,0,0,0,0,0,-0.0794,-0.0796,-0.081,-0.0811,-0.0813,-0.0826,-0.0818,-0.0827,-0.0838,-0.0829,-0.0839,-0.084,-0.0845,-0.0846,-0.0849,-0.0848,-0.0849,-0.0857,-0.0857,-0.0857,-0.0857,0,0,0,0,0,0,0,-0.0794,-0.0795,-0.0806,-0.081,-0.0812,-0.0817,-0.0819,-0.082,-0.0834,-0.083,-0.0831,-0.0833,-0.0846,-0.0848,-0.0849,-0.0849,-0.0857,-0.0857,-0.0857,-0.0857,-0.0844,-0.0844,0,0,0,0,0,0,-0.0791,-0.0794,-0.0805,-0.0807,-0.0805,-0.0817,-0.082,-0.0821,-0.0834,-0.0837,-0.0833,-0.0834,-0.0848,-0.0849,-0.085,-0.0841,-0.0857,-0.0857,-0.0857,-0.0844,-0.0844,-0.0843,0,0,0,0,0,0,-0.0791,-0.0792,-0.0805,-0.0801,-0.0803,-0.0817,-0.0819,-0.0821,-0.0823,-0.0836,-0.0839,-0.0832,-0.0848,-0.085,-0.0848,-0.0842,-0.0857,-0.0857,-0.0845,-0.0844,-0.0844,-0.0823,0,0,0,0,0,0,-0.079,-0.0791,-0.0788,-0.0801,-0.0803,-0.0803,-0.0818,-0.0821,-0.0824,-0.0826,-0.0837,-0.0839,-0.0849,-0.0848,-0.0848,-0.0843,-0.0858,-0.0846,-0.0845,-0.0844,-0.0825,-0.0822,-0.082,0,0,0,0,0,-0.0789,-0.0781,-0.0788,-0.0789,-0.0799,-0.0802,-0.0804,-0.0816,-0.0823,-0.082,-0.0829,-0.0839,-0.0843,-0.0848,-0.0848,-0.0843,-0.0846,-0.0845,-0.0844,-0.0826,-0.0823,-0.082,0,0,0,0,0,0,-0.0766,-0.0783,-0.079,-0.0786,-0.0793,-0.0806,-0.0802,-0.0812,-0.0816,-0.0817,-0.0832,-0.0834,-0.0831,-0.0837,-0.0842,-0.0836,-0.0846,-0.0845,-0.0832,-0.0829,-0.0827,-0.0825,-0.0858,0,0,0,0,0,-0.076,-0.0762,-0.0776,-0.0771,-0.0774,-0.0787,-0.0789,-0.0798,-0.0806,-0.0808,-0.0817,-0.0824,-0.0827,-0.0828,-0.0832,-0.0826,-0.0829,-0.0823,-0.082,-0.0818,-0.0817,-0.0816,-0.0814,-0.084,-0.084,-0.084,0,0,-0.0748,-0.0758,-0.0758,-0.0766,-0.0773,-0.0774,-0.079,-0.079,-0.0791,-0.0808,-0.0808,-0.0815,-0.0823,-0.082,-0.0819,-0.0825,-0.0811,-0.0817,-0.0815,-0.0815,-0.0815,-0.0812,-0.081,-0.0839,-0.0839,-0.084,0,0,-0.0728,-0.0735,-0.0731,-0.0738,-0.0748,-0.0758,-0.0757,-0.0769,-0.0775,-0.0775,-0.0788,-0.079,-0.0795,-0.0801,-0.0805,-0.0789,-0.0798,-0.079,-0.0777,-0.0776,-0.0774,-0.0772,-0.0767,-0.0765,-0.0789,-0.0789,-0.0789,0,-0.0711,-0.0714,-0.0728,-0.0729,-0.0733,-0.075,-0.0747,-0.0753,-0.0763,-0.0765,-0.0772,-0.0779,-0.0786,-0.0785,-0.0782,-0.0784,-0.0784,-0.0788,-0.0773,-0.0771,-0.077,-0.0765,-0.0763,-0.0788,-0.0788,-0.0788,-0.0788,0,-0.0694,-0.0696,-0.0692,-0.0703,-0.0707,-0.0705,-0.072,-0.0722,-0.0731,-0.074,-0.0741,-0.075,-0.0757,-0.0757,-0.0766,-0.0758,-0.0762,-0.077,-0.0781,-0.0766,-0.0762,-0.076,-0.0786,-0.0786,-0.0787,-0.0787,0,0,-0.0657,-0.0678,-0.0676,-0.0682,-0.0696,-0.0697,-0.0698,-0.0705,-0.0707,-0.0714,-0.0715,-0.0719,-0.0728,-0.0732,-0.0742,-0.0741,-0.0729,-0.075,-0.075,-0.0746,-0.0723,-0.0716,-0.0714,-0.0736,-0.0736,-0.0736,-0.0722,0,-0.0639,-0.064,-0.0654,-0.0652,-0.0655,-0.0672,-0.0672,-0.0681,-0.069,-0.0694,-0.0703,-0.0707,-0.0718,-0.0721,-0.0721,-0.0731,-0.0725,-0.0732,-0.0737,-0.0737,-0.0734,-0.0712,-0.0704,-0.0691,-0.0721,-0.0721,-0.072,0,-0.0617,-0.0625,-0.0623,-0.0638,-0.064,-0.064,-0.0648,-0.0652,-0.0662,-0.0669,-0.0675,-0.0687,-0.0688,-0.0699,-0.0702,-0.0707,-0.071,-0.0716,-0.0716,-0.0716,-0.0727,-0.0712,-0.0687,-0.0685,-0.0718,-0.0718,-0.0718,0,-0.0591,-0.06,-0.0601,-0.0606,-0.0623,-0.0623,-0.063,-0.0642,-0.0646,-0.0654,-0.0657,-0.0664,-0.0668,-0.0674,-0.0688,-0.0694,-0.069,-0.0701,-0.0696,-0.0695,-0.0693,-0.0693,-0.0669,-0.0695,-0.0695,-0.0696,-0.0696,0,-0.0569,-0.0567,-0.059,-0.059,-0.0589,-0.0606,-0.0605,-0.0614,-0.0624,-0.0627,-0.0642,-0.0644,-0.0662,-0.0667,-0.0677,-0.0679,-0.0681,-0.0686,-0.0689,-0.0685,-0.0684,-0.0687,-0.0688,-0.0695,-0.0695,-0.0695,-0.0695,0,-0.0539,-0.0554,-0.0556,-0.0574,-0.0578,-0.0577,-0.0592,-0.0593,-0.0604,-0.0607,-0.0609,-0.0626,-0.0632,-0.0647,-0.0656,-0.0664,-0.0663,-0.0668,-0.0659,-0.0661,-0.0655,-0.0655,-0.0631,-0.0629,-0.0657,-0.0657,-0.0657,0,-0.0524,-0.0523,-0.0541,-0.0545,-0.0552,-0.0557,-0.0562,-0.0579,-0.0583,-0.0596,-0.0596,-0.0604,-0.0611,-0.0621,-0.0634,-0.0642,-0.0647,-0.0638,-0.0648,-0.0645,-0.0648,-0.0647,-0.0648,-0.0636,-0.0635,-0.0635,-0.0635,0,-0.0496,-0.0504,-0.051,-0.052,-0.0525,-0.0534,-0.0543,-0.0545,-0.0564,-0.0568,-0.0575,-0.0581,-0.0592,-0.06,-0.0611,-0.0618,-0.063,-0.0632,-0.0631,-0.0626,-0.0622,-0.0625,-0.0653,-0.0632,-0.0632,-0.0633,-0.0633,-0.0633,-0.0473,-0.0474,-0.0487,-0.0494,-0.0503,-0.0512,-0.0515,-0.0527,-0.0533,-0.0544,-0.0554,-0.056,-0.0573,-0.0588,-0.0596,-0.0601,-0.0607,-0.0606,-0.0605,-0.0605,-0.0603,-0.0621,-0.0603,-0.0603,-0.0604,-0.0604,-0.0604,0,-0.0446,-0.0456,-0.0462,-0.0475,-0.0481,-0.0493,-0.0504,-0.0509,-0.0514,-0.0525,-0.0533,-0.0542,-0.055,-0.0565,-0.0574,-0.0576,-0.0582,-0.0578,-0.0578,-0.058,-0.0597,-0.0597,-0.0573,-0.0573,-0.0573,-0.0573,-0.0573,-0.0573,-0.0432,-0.0435,-0.0445,-0.0452,-0.0463,-0.047,-0.0475,-0.0484,-0.0493,-0.0502,-0.051,-0.052,-0.0533,-0.0544,-0.0552,-0.0556,-0.0559,-0.0554,-0.056,-0.0575,-0.0578,-0.0581,-0.0581,-0.0554,-0.0554,-0.0542,-0.0542,-0.0541]}]]